MXA355 MMPN-MMMZ

Flight info

Callsign MXA355
Flight time N/A
Altitude 34000
Route UPN3 UPN UJ3 GDL UJ12 ALILI
Aircraft B738/M-SDE2E3FGHIRWXY/LB1

Departure

Time N/A
Airport Uruapan - Licenciado y General Ignacio Lopez Rayon International Airport (MMPN)

Arrival

Time 2026-05-06 23:19
Airport General Rafael Buelna International Airport (MMMZ)
Time Latitude Longitude Altitude Speed Heading
2026-05-06 22:59 22.03005 -105.33076 26732 ft 496 kts 319°
2026-05-06 23:00 22.05763 -105.35344 25616 ft 500 kts 319°
2026-05-06 23:00 22.08535 -105.37623 24696 ft 500 kts 319°
2026-05-06 23:00 22.11283 -105.39880 24034 ft 494 kts 319°
2026-05-06 23:00 22.13989 -105.42103 23415 ft 486 kts 319°
2026-05-06 23:01 22.16696 -105.44328 22630 ft 480 kts 319°
2026-05-06 23:01 22.19310 -105.46480 21750 ft 467 kts 319°
2026-05-06 23:01 22.21871 -105.48589 20702 ft 461 kts 319°
2026-05-06 23:01 22.24382 -105.50660 19988 ft 447 kts 319°
2026-05-06 23:02 22.26829 -105.52679 19285 ft 436 kts 319°
2026-05-06 23:02 22.29218 -105.54652 18599 ft 427 kts 319°
2026-05-06 23:02 22.31550 -105.56579 17883 ft 419 kts 319°
2026-05-06 23:02 22.33843 -105.58475 17180 ft 413 kts 320°
2026-05-06 23:03 22.36144 -105.60381 16517 ft 422 kts 320°
2026-05-06 23:03 22.38489 -105.62327 15819 ft 427 kts 320°
2026-05-06 23:03 22.40830 -105.64263 15144 ft 416 kts 320°
2026-05-06 23:03 22.43093 -105.66134 14497 ft 403 kts 320°
2026-05-06 23:04 22.45285 -105.67946 13853 ft 393 kts 320°
2026-05-06 23:04 22.47431 -105.69723 13179 ft 385 kts 320°
2026-05-06 23:04 22.49542 -105.71473 12542 ft 378 kts 320°
2026-05-06 23:04 22.51553 -105.73141 11938 ft 375 kts 320°
2026-05-06 23:05 22.53653 -105.74887 11333 ft 387 kts 320°
2026-05-06 23:05 22.55785 -105.76660 11110 ft 382 kts 320°
2026-05-06 23:05 22.57842 -105.78364 10898 ft 360 kts 320°
2026-05-06 23:05 22.59772 -105.79962 10785 ft 337 kts 320°
2026-05-06 23:06 22.61582 -105.81463 10657 ft 319 kts 320°
2026-05-06 23:06 22.63307 -105.82897 10539 ft 308 kts 320°
2026-05-06 23:06 22.64970 -105.84284 10507 ft 296 kts 320°
2026-05-06 23:06 22.66612 -105.85660 10406 ft 305 kts 320°
2026-05-06 23:07 22.68307 -105.87083 10278 ft 306 kts 320°
2026-05-06 23:07 22.69949 -105.88457 10133 ft 291 kts 320°
2026-05-06 23:07 22.71514 -105.89767 10011 ft 277 kts 320°
2026-05-06 23:07 22.73010 -105.91019 9828 ft 267 kts 320°
2026-05-06 23:08 22.74463 -105.92238 9539 ft 261 kts 320°
2026-05-06 23:08 22.75868 -105.93417 9275 ft 258 kts 320°
2026-05-06 23:08 22.77298 -105.94619 9026 ft 262 kts 320°
2026-05-06 23:08 22.78758 -105.95846 8716 ft 268 kts 320°
2026-05-06 23:09 22.80226 -105.97076 8444 ft 267 kts 320°
2026-05-06 23:09 22.81697 -105.98311 8173 ft 266 kts 320°
2026-05-06 23:09 22.83156 -105.99535 7906 ft 266 kts 320°
2026-05-06 23:09 22.84478 -106.00640 7659 ft 266 kts 320°
2026-05-06 23:10 22.85877 -106.01808 7405 ft 265 kts 321°
2026-05-06 23:10 22.87300 -106.02996 7143 ft 266 kts 321°
2026-05-06 23:10 22.88765 -106.04222 6860 ft 266 kts 321°
2026-05-06 23:10 22.90232 -106.05448 6579 ft 266 kts 321°
2026-05-06 23:11 22.91703 -106.06679 6290 ft 266 kts 322°
2026-05-06 23:11 22.93169 -106.07905 5999 ft 266 kts 322°
2026-05-06 23:11 22.94636 -106.09132 5711 ft 266 kts 322°
2026-05-06 23:11 22.96099 -106.10357 5426 ft 265 kts 322°
2026-05-06 23:12 22.97562 -106.11582 5144 ft 265 kts 322°
2026-05-06 23:12 22.99024 -106.12798 4860 ft 265 kts 325°
2026-05-06 23:12 23.00722 -106.13524 4555 ft 263 kts 356°
2026-05-06 23:12 23.02457 -106.13250 4498 ft 244 kts 22°
2026-05-06 23:13 23.03869 -106.12334 4383 ft 225 kts 38°
2026-05-06 23:13 23.05045 -106.11280 4258 ft 207 kts 39°
2026-05-06 23:13 23.06162 -106.10405 4146 ft 192 kts 33°
2026-05-06 23:13 23.07301 -106.09667 3838 ft 189 kts 29°
2026-05-06 23:14 23.08440 -106.09047 3688 ft 180 kts 25°
2026-05-06 23:14 23.09588 -106.08517 3599 ft 178 kts 22°
2026-05-06 23:14 23.10750 -106.08062 3534 ft 182 kts 18°
2026-05-06 23:14 23.12004 -106.07716 3450 ft 187 kts
2026-05-06 23:15 23.13280 -106.07967 3248 ft 186 kts 336°
2026-05-06 23:15 23.14323 -106.08756 3030 ft 181 kts 312°
2026-05-06 23:15 23.14980 -106.09907 2741 ft 182 kts 288°
2026-05-06 23:15 23.15256 -106.11229 2505 ft 178 kts 280°
2026-05-06 23:16 23.15442 -106.12545 2310 ft 173 kts 276°
2026-05-06 23:16 23.15538 -106.13846 2051 ft 169 kts 274°
2026-05-06 23:16 23.15599 -106.15072 1827 ft 156 kts 273°
2026-05-06 23:16 23.15653 -106.16204 1669 ft 145 kts 274°
2026-05-06 23:17 23.15704 -106.17273 1454 ft 136 kts 273°
2026-05-06 23:17 23.15754 -106.18277 1338 ft 130 kts 272°
2026-05-06 23:17 23.15783 -106.18916 1192 ft 136 kts 271°
2026-05-06 23:17 23.15846 -106.20256 946 ft 127 kts 274°
2026-05-06 23:18 23.15880 -106.20908 845 ft 134 kts 271°
2026-05-06 23:18 23.15927 -106.21901 685 ft 140 kts 272°
2026-05-06 23:18 23.15977 -106.22947 484 ft 135 kts 273°
2026-05-06 23:18 23.16025 -106.23931 313 ft 127 kts 275°
2026-05-06 23:19 23.16074 -106.24933 141 ft 133 kts 275°
2026-05-06 23:19 23.16123 -106.25865 61 ft 122 kts 274°
2026-05-06 23:19 23.16164 -106.26677 45 ft 88 kts 271°
2026-05-06 23:19 23.16185 -106.27178 45 ft 46 kts 273°
2026-05-06 23:20 23.16196 -106.27374 44 ft 14 kts 287°
2026-05-06 23:20 23.16211 -106.27386 43 ft 3 kts
2026-05-06 23:20 23.16248 -106.27348 44 ft 10 kts 59°
2026-05-06 23:20 23.16275 -106.27291 43 ft 0 kts 59°
2026-05-06 23:21 23.16284 -106.27273 45 ft 5 kts 61°
2026-05-06 23:21 23.16315 -106.27229 45 ft 10 kts 42°
2026-05-06 23:21 23.16391 -106.27206 45 ft 13 kts
2026-05-06 23:21 23.16437 -106.27204 45 ft 1 kts
2026-05-06 23:22 23.16462 -106.27201 45 ft 6 kts 14°
2026-05-06 23:22 23.16485 -106.27157 45 ft 8 kts 86°
2026-05-06 23:22 23.16482 -106.27079 45 ft 13 kts 92°
2026-05-06 23:22 23.16477 -106.26965 45 ft 18 kts 94°
2026-05-06 23:23 23.16475 -106.26845 45 ft 7 kts 67°
2026-05-06 23:23 23.16513 -106.26825 45 ft 2 kts 342°
2026-05-06 23:23 23.16531 -106.26838 45 ft 2 kts 320°
2026-05-06 23:23 23.16548 -106.26854 45 ft 4 kts 317°
2026-05-06 23:24 23.16558 -106.26865 45 ft 2 kts 316°
2026-05-06 23:24 23.16564 -106.26872 45 ft 1 kts 316°
2026-05-06 23:24 23.16567 -106.26875 45 ft 0 kts 316°